Showing default

KINEIS-5E, 62083

Orbit data source: Space-Track

KINEIS-5E, 62083 is a French payload satellite in SSO that was launched on Mon, 25 Nov 2024 UTC via an ELECTRON launch vehicle from the Rocket Lab Launch Complex (RLLC). Payload-class satellites include a variety of spacecraft equipped with specific instruments for various scientific and technological missions. These include communications satellites like Starlink; space stations such as the ISS; scientific satellites like the Hubble; Earth observation satellites from companies like Planet Labs, Umbra, and HawkEye 360; GPS; miniature CubeSats for education and research; and military/defense satellites.

Loading next visibility...
Identifier
62083, 2024-219C
Orbit
SSO
Country
Flag of FRFR
Related business
Manufacturer
KINEIS
Mission
Operational Commercial Communications
Bus & Motor
CUBESAT 16U, Unknown motor
Mass
28 kg wet, 28 kg dry
Launch date (UTC)
2024-11-25 (1 year ago)
Launch vehicle
ELECTRON
Launch site
Rocket Lab Launch Complex (RLLC)
Object type
Payload
Rocket body
Debris
Shape & HBR
Box + 2 Pan + 1 Ant, 1.0 m
Radar Cross Section
0.229 m², Medium (>0.1 m² and < 1m²)

Expand to show TLE details & history
Last TLE update: 7 hours ago

TLE from 7 hours ago
0 KINEIS-5E
1 62083U 24219C   26034.49778351  .00001005  00000-0  16641-3 0  9993
2 62083  97.9908 196.7588 0001621  83.3340 276.8051 14.72391732 64095
Epoch: 2026-02-03T11:56Z
TLE epoch observation values (Epoch: 2026-02-03T11:56:48.495Z)
Latitude
-0.00011°
Longitude
-116.12111°
Altitude
656.317 km
Speed
7.529 km/s
True Right ascension
13h 07m 02s
True Declination
0° 00' 00"
Sunlit
Object was in full shadow at epoch
Visualization orbit readout
Latitude
Unknown
Longitude
Unknown
Altitude
Unknown
Speed
Unknown
Apparent Right ascension
Unknown
Apparent Declination
Unknown
Sunlit
N/A
Visualization observer readout
Local Sidereal Time
20:26:00
Azimuth
Unknown
Elevation
Unknown
Doppler factor
Unknown
Orbital elements
Apogee altitude
651.638 km
Perigee altitude
649.359 km
Semi-major axis
7,028.635 km
Eccentricity
0.00016
Inclination
97.9908°
RAAN
196.7588°
Arg. of periapsis
83.334°
True anomaly
276.78666°
Mean anomaly
276.8051°
Eccentric anomaly
276.79588°
Mean motion
3.6833 °/min
Orbital period
97.74 mins
BSTAR
0.00016641
Loading maneuver chart data...
Computing Atmospheric mass density...
Loading historical data...
Loading historical data...
Loading historical data...
Loading historical data...
Loading historical data...
Loading historical data...
Loading historical data...

Documentation

Showing up to 5 results
|